Year,Month,Day,Hour,Minute,Value (Times are PST for temperature in C)
2019,05,27,00,00,16.90
2019,05,27,00,02,16.80
2019,05,27,00,04,16.80
2019,05,27,00,05,16.80
2019,05,27,00,06,16.90
2019,05,27,00,07,16.90
2019,05,27,00,09,16.90
2019,05,27,00,10,16.90
2019,05,27,00,11,17.10
2019,05,27,00,13,16.90
2019,05,27,00,14,17.10
2019,05,27,00,15,16.90
2019,05,27,00,17,16.90
2019,05,27,00,18,16.90
2019,05,27,00,19,16.90
2019,05,27,00,20,16.90
2019,05,27,00,21,16.90
2019,05,27,00,22,17.10
2019,05,27,00,24,17.10
2019,05,27,00,25,17.10
2019,05,27,00,26,17.10
2019,05,27,00,27,17.10
2019,05,27,00,28,17.10
2019,05,27,00,29,17.10
2019,05,27,00,30,17.10
2019,05,27,00,31,17.10
2019,05,27,00,32,17.10
2019,05,27,00,33,17.10
2019,05,27,00,34,17.10
2019,05,27,00,35,17.10
2019,05,27,00,36,17.20
2019,05,27,00,37,17.30
2019,05,27,00,38,17.30
2019,05,27,00,39,17.40
2019,05,27,00,40,17.50
2019,05,27,00,41,17.50
2019,05,27,00,42,17.50
2019,05,27,00,43,17.50
2019,05,27,00,44,17.60
2019,05,27,00,45,17.60
2019,05,27,00,46,17.50
2019,05,27,00,47,17.50
2019,05,27,00,48,17.50
2019,05,27,00,49,17.50
2019,05,27,00,50,17.40
2019,05,27,00,51,17.40
2019,05,27,00,52,17.40
2019,05,27,00,53,17.30
2019,05,27,00,54,17.30
2019,05,27,00,56,17.30
2019,05,27,00,57,17.30
2019,05,27,00,58,17.40
2019,05,27,00,59,17.40
2019,05,27,01,00,17.40
2019,05,27,01,01,17.40
2019,05,27,01,02,17.40
2019,05,27,01,03,17.50
2019,05,27,01,04,17.50
2019,05,27,01,05,17.50
2019,05,27,01,06,17.50
2019,05,27,01,07,17.50
2019,05,27,01,08,17.60
2019,05,27,01,09,17.60
2019,05,27,01,10,17.60
2019,05,27,01,11,17.60
2019,05,27,01,12,17.60
2019,05,27,01,13,17.50
2019,05,27,01,14,17.50
2019,05,27,01,15,17.50
2019,05,27,01,16,17.50
2019,05,27,01,17,17.60
2019,05,27,01,18,17.60
2019,05,27,01,19,17.80
2019,05,27,01,20,17.90
2019,05,27,01,21,17.90
2019,05,27,01,22,18.00
2019,05,27,01,23,18.10
2019,05,27,01,24,18.10
2019,05,27,01,25,18.20
2019,05,27,01,26,18.20
2019,05,27,01,27,18.20
2019,05,27,01,28,18.20
2019,05,27,01,29,18.20
2019,05,27,01,30,18.20
2019,05,27,01,31,18.20
2019,05,27,01,32,18.20
2019,05,27,01,33,18.10
2019,05,27,01,34,18.10
2019,05,27,01,35,18.10
2019,05,27,01,36,18.10
2019,05,27,01,37,18.00
2019,05,27,01,38,18.00
2019,05,27,01,39,18.00
2019,05,27,01,40,18.00
2019,05,27,01,41,17.90
2019,05,27,01,42,17.90
2019,05,27,01,43,17.90
2019,05,27,01,44,17.90
2019,05,27,01,45,17.90
2019,05,27,01,46,17.90
2019,05,27,01,47,17.80
2019,05,27,01,48,17.80
2019,05,27,01,49,17.80
2019,05,27,01,50,17.80
2019,05,27,01,51,17.80
2019,05,27,01,53,17.80
2019,05,27,01,54,17.80
2019,05,27,01,55,17.80
2019,05,27,01,56,17.80
2019,05,27,01,57,17.80
2019,05,27,01,58,17.80
2019,05,27,01,59,17.80
2019,05,27,02,00,17.80
2019,05,27,02,01,17.70
2019,05,27,02,02,17.70
2019,05,27,02,03,17.70
2019,05,27,02,04,17.70
2019,05,27,02,05,17.70
2019,05,27,02,06,17.60
2019,05,27,02,07,17.60
2019,05,27,02,08,17.60
2019,05,27,02,09,17.60
2019,05,27,02,10,17.50
2019,05,27,02,11,17.50
2019,05,27,02,12,17.50
2019,05,27,02,13,17.40
2019,05,27,02,14,17.40
2019,05,27,02,15,17.40
2019,05,27,02,16,17.40
2019,05,27,02,17,17.40
2019,05,27,02,18,17.30
2019,05,27,02,19,17.30
2019,05,27,02,20,17.30
2019,05,27,02,21,17.30
2019,05,27,02,22,17.30
2019,05,27,02,23,17.40
2019,05,27,02,24,17.40
2019,05,27,02,25,17.40
2019,05,27,02,26,17.40
2019,05,27,02,27,17.40
2019,05,27,02,28,17.40
2019,05,27,02,29,17.50
2019,05,27,02,30,17.50
2019,05,27,02,31,17.60
2019,05,27,02,32,17.60
2019,05,27,02,33,17.60
2019,05,27,02,34,17.60
2019,05,27,02,35,17.70
2019,05,27,02,36,17.70
2019,05,27,02,37,17.70
2019,05,27,02,38,17.70
2019,05,27,02,39,17.70
2019,05,27,02,40,17.70
2019,05,27,02,41,17.70
2019,05,27,02,42,17.70
2019,05,27,02,43,17.60
2019,05,27,02,44,17.60
2019,05,27,02,45,17.60
2019,05,27,02,46,17.50
2019,05,27,02,47,17.50
2019,05,27,02,48,17.40
2019,05,27,02,49,17.40
2019,05,27,02,50,17.30
2019,05,27,02,51,17.30
2019,05,27,02,52,17.20
2019,05,27,02,53,17.10
2019,05,27,02,54,17.10
2019,05,27,02,55,16.90
2019,05,27,02,56,16.90
2019,05,27,02,57,16.90
2019,05,27,02,58,16.80
2019,05,27,02,59,16.80
2019,05,27,03,00,16.70
2019,05,27,03,01,16.70
2019,05,27,03,02,16.60
2019,05,27,03,03,16.50
2019,05,27,03,04,16.50
2019,05,27,03,05,16.50
2019,05,27,03,06,16.50
2019,05,27,03,07,16.40
2019,05,27,03,08,16.40
2019,05,27,03,09,16.30
2019,05,27,03,10,16.30
2019,05,27,03,11,16.30
2019,05,27,03,12,16.30
2019,05,27,03,13,16.30
2019,05,27,03,14,16.20
2019,05,27,03,15,16.10
2019,05,27,03,16,16.10
2019,05,27,03,17,16.00
2019,05,27,03,18,15.90
2019,05,27,03,19,15.90
2019,05,27,03,20,15.80
2019,05,27,03,21,15.70
2019,05,27,03,22,15.70
2019,05,27,03,23,15.70
2019,05,27,03,24,15.70
2019,05,27,03,25,15.70
2019,05,27,03,26,15.60
2019,05,27,03,27,15.60
2019,05,27,03,28,15.50
2019,05,27,03,29,15.40
2019,05,27,03,30,15.40
2019,05,27,03,31,15.40
2019,05,27,03,32,15.30
2019,05,27,03,33,15.30
2019,05,27,03,34,15.30
2019,05,27,03,35,15.20
2019,05,27,03,36,15.20
2019,05,27,03,37,15.20
2019,05,27,03,38,15.20
2019,05,27,03,39,15.20
2019,05,27,03,40,15.20
2019,05,27,03,41,15.20
2019,05,27,03,42,15.10
2019,05,27,03,43,15.10
2019,05,27,03,44,15.10
2019,05,27,03,45,15.10
2019,05,27,03,46,15.10
2019,05,27,03,47,15.00
2019,05,27,03,48,15.00
2019,05,27,03,49,15.00
2019,05,27,03,50,15.00
2019,05,27,03,51,15.00
2019,05,27,03,52,15.00
2019,05,27,03,53,15.00
2019,05,27,03,54,15.00
2019,05,27,03,55,14.90
2019,05,27,03,56,14.90
2019,05,27,03,57,14.90
2019,05,27,03,58,14.90
2019,05,27,03,59,14.80
2019,05,27,04,00,14.80
2019,05,27,04,01,14.80
2019,05,27,04,02,14.70
2019,05,27,04,03,14.70
2019,05,27,04,04,14.70
2019,05,27,04,05,14.70
2019,05,27,04,06,14.70
2019,05,27,04,07,14.60
2019,05,27,04,08,14.60
2019,05,27,04,09,14.50
2019,05,27,04,10,14.50
2019,05,27,04,11,14.50
2019,05,27,04,12,14.40
2019,05,27,04,13,14.40
2019,05,27,04,14,14.50
2019,05,27,04,15,14.50
2019,05,27,04,16,14.40
2019,05,27,04,17,14.40
2019,05,27,04,18,14.40
2019,05,27,04,19,14.40
2019,05,27,04,20,14.30
2019,05,27,04,21,14.30
2019,05,27,04,22,14.20
2019,05,27,04,23,14.20
2019,05,27,04,24,14.20
2019,05,27,04,25,14.20
2019,05,27,04,26,14.10
2019,05,27,04,27,14.10
2019,05,27,04,29,14.10
2019,05,27,04,30,14.10
2019,05,27,04,31,14.10
2019,05,27,04,32,14.10
2019,05,27,04,33,14.10
2019,05,27,04,34,14.10
2019,05,27,04,35,14.10
2019,05,27,04,36,14.10
2019,05,27,04,37,14.10
2019,05,27,04,38,14.10
2019,05,27,04,39,14.10
2019,05,27,04,40,14.10
2019,05,27,04,41,14.10
2019,05,27,04,42,13.90
2019,05,27,04,43,13.90
2019,05,27,04,44,13.90
2019,05,27,04,45,13.90
2019,05,27,04,46,13.90
2019,05,27,04,47,13.90
2019,05,27,04,48,13.90
2019,05,27,04,49,13.90
2019,05,27,04,50,13.90
2019,05,27,04,51,13.80
2019,05,27,04,53,13.80
2019,05,27,04,55,13.70
2019,05,27,04,56,13.70
2019,05,27,04,57,13.70
2019,05,27,04,58,13.70
2019,05,27,04,59,13.70
2019,05,27,05,00,13.70
2019,05,27,05,01,13.60
2019,05,27,05,02,13.60
2019,05,27,05,03,13.60
2019,05,27,05,04,13.50
2019,05,27,05,05,13.50
2019,05,27,05,06,13.50
2019,05,27,05,07,13.50
2019,05,27,05,08,13.40
2019,05,27,05,09,13.40
2019,05,27,05,10,13.40
2019,05,27,05,11,13.40
2019,05,27,05,12,13.40
2019,05,27,05,13,13.30
2019,05,27,05,14,13.30
2019,05,27,05,15,13.30
2019,05,27,05,16,13.30
2019,05,27,05,17,13.30
2019,05,27,05,18,13.30
2019,05,27,05,19,13.30
2019,05,27,05,20,13.30
2019,05,27,05,21,13.30
2019,05,27,05,22,13.30
2019,05,27,05,23,13.30
2019,05,27,05,24,13.30
2019,05,27,05,25,13.30
2019,05,27,05,26,13.40
2019,05,27,05,27,13.40
2019,05,27,05,28,13.40
2019,05,27,05,29,13.50
2019,05,27,05,30,13.50
2019,05,27,05,31,13.50
2019,05,27,05,32,13.50
2019,05,27,05,33,13.50
2019,05,27,05,34,13.60
2019,05,27,05,35,13.60
2019,05,27,05,36,13.60
2019,05,27,05,37,13.60
2019,05,27,05,38,13.60
2019,05,27,05,39,13.70
2019,05,27,05,40,13.70
2019,05,27,05,41,13.60
2019,05,27,05,42,13.60
2019,05,27,05,43,13.60
2019,05,27,05,44,13.60
2019,05,27,05,45,13.60
2019,05,27,05,46,13.60
2019,05,27,05,47,13.60
2019,05,27,05,48,13.60
2019,05,27,05,49,13.60
2019,05,27,05,50,13.60
2019,05,27,05,51,13.60
2019,05,27,05,52,13.60
2019,05,27,05,53,13.60
2019,05,27,05,54,13.60
2019,05,27,05,56,13.60
2019,05,27,05,57,13.60
2019,05,27,05,58,13.60
2019,05,27,05,59,13.60
2019,05,27,06,00,13.60
2019,05,27,06,01,13.60
2019,05,27,06,02,13.60
2019,05,27,06,03,13.50
2019,05,27,06,04,13.50
2019,05,27,06,05,13.50
2019,05,27,06,06,13.50
2019,05,27,06,07,13.50
2019,05,27,06,08,13.50
2019,05,27,06,09,13.50
2019,05,27,06,10,13.50
2019,05,27,06,11,13.50
2019,05,27,06,13,13.50
2019,05,27,06,14,13.50
2019,05,27,06,15,13.60
2019,05,27,06,16,13.60
2019,05,27,06,17,13.60
2019,05,27,06,18,13.60
2019,05,27,06,19,13.70
2019,05,27,06,20,13.70
2019,05,27,06,21,13.70
2019,05,27,06,22,13.80
2019,05,27,06,23,13.80
2019,05,27,06,24,13.90
2019,05,27,06,25,13.90
2019,05,27,06,26,13.90
2019,05,27,06,27,13.90
2019,05,27,06,28,13.90
2019,05,27,06,29,14.10
2019,05,27,06,30,14.10
2019,05,27,06,31,14.10
2019,05,27,06,32,14.10
2019,05,27,06,33,14.20
2019,05,27,06,34,14.20
2019,05,27,06,35,14.30
2019,05,27,06,36,14.30
2019,05,27,06,37,14.30
2019,05,27,06,38,14.30
2019,05,27,06,39,14.40
2019,05,27,06,40,14.40
2019,05,27,06,41,14.40
2019,05,27,06,42,14.40
2019,05,27,06,43,14.50
2019,05,27,06,44,14.50
2019,05,27,06,45,14.50
2019,05,27,06,46,14.50
2019,05,27,06,47,14.50
2019,05,27,06,48,14.50
2019,05,27,06,49,14.50
2019,05,27,06,50,14.50
2019,05,27,06,51,14.50
2019,05,27,06,52,14.50
2019,05,27,06,53,14.50
2019,05,27,06,54,14.50
2019,05,27,06,55,14.50
2019,05,27,06,56,14.50
2019,05,27,06,57,14.50
2019,05,27,06,58,14.50
2019,05,27,06,59,14.50
2019,05,27,07,00,14.50
2019,05,27,07,01,14.50
2019,05,27,07,02,14.50
2019,05,27,07,03,14.50
2019,05,27,07,04,14.50
2019,05,27,07,05,14.50
2019,05,27,07,06,14.60
2019,05,27,07,07,14.60
2019,05,27,07,08,14.70
2019,05,27,07,09,14.70
2019,05,27,07,10,14.70
2019,05,27,07,11,14.70
2019,05,27,07,12,14.70
2019,05,27,07,13,14.70
2019,05,27,07,14,14.70
2019,05,27,07,15,14.70
2019,05,27,07,16,14.70
2019,05,27,07,17,14.70
2019,05,27,07,18,14.70
2019,05,27,07,19,14.80
2019,05,27,07,20,14.80
2019,05,27,07,21,14.80
2019,05,27,07,22,14.80
2019,05,27,07,23,14.80
2019,05,27,07,24,14.90
2019,05,27,07,25,14.90
2019,05,27,07,26,14.90
2019,05,27,07,27,14.90
2019,05,27,07,28,15.00
2019,05,27,07,29,15.00
2019,05,27,07,30,15.00
2019,05,27,07,31,15.00
2019,05,27,07,32,15.10
2019,05,27,07,33,15.10
2019,05,27,07,34,15.10
2019,05,27,07,35,15.20
2019,05,27,07,36,15.20
2019,05,27,07,37,15.20
2019,05,27,07,38,15.20
2019,05,27,07,39,15.20
2019,05,27,07,40,15.30
2019,05,27,07,42,15.40
2019,05,27,07,43,15.40
2019,05,27,07,44,15.40
2019,05,27,07,45,15.50
2019,05,27,07,46,15.50
2019,05,27,07,47,15.60
2019,05,27,07,48,15.60
2019,05,27,07,49,15.60
2019,05,27,07,50,15.60
2019,05,27,07,51,15.70
2019,05,27,07,52,15.70
2019,05,27,07,53,15.70
2019,05,27,07,54,15.70
2019,05,27,07,55,15.70
2019,05,27,07,56,15.70
2019,05,27,07,57,15.70
2019,05,27,07,58,15.80
2019,05,27,07,59,15.80
2019,05,27,08,00,15.80
2019,05,27,08,01,15.80
2019,05,27,08,02,15.80
2019,05,27,08,03,15.80
2019,05,27,08,04,15.80
2019,05,27,08,05,15.90
2019,05,27,08,06,15.90
2019,05,27,08,07,15.90
2019,05,27,08,08,15.90
2019,05,27,08,09,15.90
2019,05,27,08,10,15.90
2019,05,27,08,11,15.90
2019,05,27,08,12,15.90
2019,05,27,08,13,15.90
2019,05,27,08,14,15.90
2019,05,27,08,15,15.90
2019,05,27,08,16,15.90
2019,05,27,08,17,15.90
2019,05,27,08,18,15.90
2019,05,27,08,19,15.90
2019,05,27,08,20,16.00
2019,05,27,08,21,16.00
2019,05,27,08,22,16.00
2019,05,27,08,23,16.00
2019,05,27,08,24,16.00
2019,05,27,08,25,16.10
2019,05,27,08,26,16.10
2019,05,27,08,27,16.10
2019,05,27,08,28,16.20
2019,05,27,08,29,16.20
2019,05,27,08,30,16.20
2019,05,27,08,31,16.30
2019,05,27,08,32,16.30
2019,05,27,08,33,16.30
2019,05,27,08,34,16.30
2019,05,27,08,35,16.40
2019,05,27,08,36,16.40
2019,05,27,08,37,16.50
2019,05,27,08,38,16.60
2019,05,27,08,39,16.60
2019,05,27,08,40,16.70
2019,05,27,08,41,16.80
2019,05,27,08,42,16.80
2019,05,27,08,43,16.90
2019,05,27,08,44,16.90
2019,05,27,08,45,17.10
2019,05,27,08,46,17.10
2019,05,27,08,47,17.20
2019,05,27,08,48,17.30
2019,05,27,08,49,17.40
2019,05,27,08,50,17.50
2019,05,27,08,51,17.60
2019,05,27,08,52,17.70
2019,05,27,08,53,17.80
2019,05,27,08,54,17.80
2019,05,27,08,55,17.80
2019,05,27,08,56,17.90
2019,05,27,08,57,18.00
2019,05,27,08,58,18.10
2019,05,27,08,59,18.20
2019,05,27,09,00,18.20
2019,05,27,09,01,18.30
2019,05,27,09,02,18.40
2019,05,27,09,03,18.40
2019,05,27,09,04,18.50
2019,05,27,09,05,18.50
2019,05,27,09,07,18.60
2019,05,27,09,08,18.60
2019,05,27,09,09,18.70
2019,05,27,09,10,18.70
2019,05,27,09,11,18.70
2019,05,27,09,13,18.80
2019,05,27,09,14,18.90
2019,05,27,09,15,18.90
2019,05,27,09,16,19.00
2019,05,27,09,17,19.10
2019,05,27,09,18,19.10
2019,05,27,09,19,19.20
2019,05,27,09,20,19.20
2019,05,27,09,21,19.30
2019,05,27,09,22,19.30
2019,05,27,09,23,19.40
2019,05,27,09,24,19.40
2019,05,27,09,25,19.40
2019,05,27,09,27,19.60
2019,05,27,09,28,19.60
2019,05,27,09,29,19.60
2019,05,27,09,30,19.60
2019,05,27,09,31,19.60
2019,05,27,09,32,19.60
2019,05,27,09,33,19.60
2019,05,27,09,34,19.40
2019,05,27,09,35,19.40
2019,05,27,09,36,19.40
2019,05,27,09,37,19.30
2019,05,27,09,38,19.30
2019,05,27,09,40,19.30
2019,05,27,09,41,19.40
2019,05,27,09,42,19.40
2019,05,27,09,43,19.60
2019,05,27,09,44,19.60
2019,05,27,09,45,19.70
2019,05,27,09,46,19.70
2019,05,27,09,47,19.90
2019,05,27,09,48,20.00
2019,05,27,09,49,20.10
2019,05,27,09,50,20.10
2019,05,27,09,51,20.20
2019,05,27,09,52,20.30
2019,05,27,09,53,20.30
2019,05,27,09,54,20.30
2019,05,27,09,55,20.20
2019,05,27,09,56,20.30
2019,05,27,09,57,20.30
2019,05,27,09,58,20.30
2019,05,27,09,59,20.40
2019,05,27,10,00,20.40
2019,05,27,10,01,20.40
2019,05,27,10,02,20.40
2019,05,27,10,03,20.30
2019,05,27,10,04,20.30
2019,05,27,10,05,20.30
2019,05,27,10,06,20.30
2019,05,27,10,07,20.30
2019,05,27,10,08,20.30
2019,05,27,10,09,20.40
2019,05,27,10,10,20.40
2019,05,27,10,11,20.40
2019,05,27,10,12,20.50
2019,05,27,10,13,20.50
2019,05,27,10,14,20.60
2019,05,27,10,15,20.60
2019,05,27,10,16,20.70
2019,05,27,10,18,20.70
2019,05,27,10,19,20.70
2019,05,27,10,20,20.60
2019,05,27,10,21,20.50
2019,05,27,10,23,20.30
2019,05,27,10,24,20.30
2019,05,27,10,25,20.20
2019,05,27,10,26,20.30
2019,05,27,10,27,20.30
2019,05,27,10,28,20.30
2019,05,27,10,29,20.30
2019,05,27,10,30,20.30
2019,05,27,10,31,20.30
2019,05,27,10,32,20.30
2019,05,27,10,33,20.40
2019,05,27,10,34,20.40
2019,05,27,10,35,20.50
2019,05,27,10,36,20.50
2019,05,27,10,37,20.60
2019,05,27,10,38,20.60
2019,05,27,10,39,20.50
2019,05,27,10,40,20.50
2019,05,27,10,41,20.40
2019,05,27,10,43,20.30
2019,05,27,10,44,20.40
2019,05,27,10,45,20.40
2019,05,27,10,46,20.40
2019,05,27,10,48,20.40
2019,05,27,10,49,20.40
2019,05,27,10,50,20.40
2019,05,27,10,51,20.40
2019,05,27,10,52,20.40
2019,05,27,10,53,20.40
2019,05,27,10,54,20.50
2019,05,27,10,55,20.50
2019,05,27,10,56,20.50
2019,05,27,10,57,20.50
2019,05,27,10,58,20.50
2019,05,27,10,59,20.50
2019,05,27,11,00,20.50
2019,05,27,11,01,20.50
2019,05,27,11,02,20.50
2019,05,27,11,03,20.50
2019,05,27,11,04,20.50
2019,05,27,11,05,20.50
2019,05,27,11,06,20.50
2019,05,27,11,07,20.50
2019,05,27,11,08,20.50
2019,05,27,11,09,20.50
2019,05,27,11,10,20.50
2019,05,27,11,11,20.60
2019,05,27,11,12,20.60
2019,05,27,11,13,20.60
2019,05,27,11,14,20.60
2019,05,27,11,15,20.60
2019,05,27,11,17,20.70
2019,05,27,11,18,20.70
2019,05,27,11,19,20.80
2019,05,27,11,20,20.90
2019,05,27,11,21,20.90
2019,05,27,11,22,21.10
2019,05,27,11,23,21.10
2019,05,27,11,24,21.10
2019,05,27,11,25,21.10
2019,05,27,11,26,21.20
2019,05,27,11,27,21.20
2019,05,27,11,28,21.20
2019,05,27,11,29,21.10
2019,05,27,11,30,21.10
2019,05,27,11,31,21.10
2019,05,27,11,32,21.10
2019,05,27,11,33,21.10
2019,05,27,11,34,21.10
2019,05,27,11,35,21.20
2019,05,27,11,36,21.20
2019,05,27,11,37,21.20
2019,05,27,11,38,21.20
2019,05,27,11,39,21.20
2019,05,27,11,40,21.20
2019,05,27,11,41,21.20
2019,05,27,11,42,21.20
2019,05,27,11,43,21.20
2019,05,27,11,44,21.20
2019,05,27,11,45,21.20
2019,05,27,11,46,21.20
2019,05,27,11,47,21.20
2019,05,27,11,48,21.20
2019,05,27,11,49,21.20
2019,05,27,11,50,21.20
2019,05,27,11,51,21.30
2019,05,27,11,52,21.30
2019,05,27,11,53,21.40
2019,05,27,11,54,21.40
2019,05,27,11,55,21.50
2019,05,27,11,56,21.60
2019,05,27,11,57,21.60
2019,05,27,11,58,21.70
2019,05,27,11,59,21.70
2019,05,27,12,00,21.70
2019,05,27,12,01,21.70
2019,05,27,12,02,21.80
2019,05,27,12,03,21.80
2019,05,27,12,04,21.70
2019,05,27,12,05,21.70
2019,05,27,12,06,21.70
2019,05,27,12,07,21.60
2019,05,27,12,08,21.60
2019,05,27,12,09,21.50
2019,05,27,12,10,21.50
2019,05,27,12,11,21.40
2019,05,27,12,12,21.40
2019,05,27,12,13,21.40
2019,05,27,12,14,21.50
2019,05,27,12,15,21.50
2019,05,27,12,16,21.40
2019,05,27,12,17,21.30
2019,05,27,12,18,21.30
2019,05,27,12,19,21.30
2019,05,27,12,20,21.30
2019,05,27,12,21,21.30
2019,05,27,12,22,21.40
2019,05,27,12,23,21.50
2019,05,27,12,24,21.50
2019,05,27,12,25,21.50
2019,05,27,12,26,21.60
2019,05,27,12,27,21.60
2019,05,27,12,28,21.70
2019,05,27,12,29,21.70
2019,05,27,12,30,21.80
2019,05,27,12,31,21.90
2019,05,27,12,32,21.90
2019,05,27,12,33,21.90
2019,05,27,12,34,21.90
2019,05,27,12,35,21.80
2019,05,27,12,36,21.80
2019,05,27,12,37,21.80
2019,05,27,12,38,21.80
2019,05,27,12,39,21.80
2019,05,27,12,40,21.80
2019,05,27,12,41,21.80
2019,05,27,12,42,21.80
2019,05,27,12,43,21.80
2019,05,27,12,44,21.90
2019,05,27,12,45,21.90
2019,05,27,12,46,22.00
2019,05,27,12,47,22.00
2019,05,27,12,48,22.10
2019,05,27,12,49,22.10
2019,05,27,12,50,22.20
2019,05,27,12,51,22.20
2019,05,27,12,52,22.30
2019,05,27,12,53,22.30
2019,05,27,12,54,22.20
2019,05,27,12,55,22.10
2019,05,27,12,56,22.10
2019,05,27,12,57,22.00
2019,05,27,12,58,21.90
2019,05,27,12,59,21.90
2019,05,27,13,00,21.80
2019,05,27,13,01,21.70
2019,05,27,13,02,21.70
2019,05,27,13,03,21.70
2019,05,27,13,04,21.70
2019,05,27,13,05,21.70
2019,05,27,13,06,21.70
2019,05,27,13,07,21.70
2019,05,27,13,08,21.70
2019,05,27,13,09,21.80
2019,05,27,13,10,21.70
2019,05,27,13,11,21.70
2019,05,27,13,12,21.80
2019,05,27,13,13,21.80
2019,05,27,13,14,21.90
2019,05,27,13,15,21.90
2019,05,27,13,16,22.00
2019,05,27,13,17,22.00
2019,05,27,13,18,22.10
2019,05,27,13,19,22.20
2019,05,27,13,20,22.30
2019,05,27,13,21,22.30
2019,05,27,13,22,22.30
2019,05,27,13,23,22.40
2019,05,27,13,24,22.60
2019,05,27,13,25,22.60
2019,05,27,13,26,22.70
2019,05,27,13,27,22.70
2019,05,27,13,28,22.70
2019,05,27,13,29,22.70
2019,05,27,13,30,22.70
2019,05,27,13,31,22.70
2019,05,27,13,32,22.70
2019,05,27,13,33,22.70
2019,05,27,13,34,22.70
2019,05,27,13,35,22.70
2019,05,27,13,36,22.70
2019,05,27,13,37,22.70
2019,05,27,13,38,22.70
2019,05,27,13,39,22.70
2019,05,27,13,40,22.70
2019,05,27,13,41,22.80
2019,05,27,13,42,22.80
2019,05,27,13,43,22.90
2019,05,27,13,44,22.90
2019,05,27,13,45,23.00
2019,05,27,13,46,23.10
2019,05,27,13,47,23.20
2019,05,27,13,48,23.20
2019,05,27,13,49,23.20
2019,05,27,13,50,23.30
2019,05,27,13,51,23.30
2019,05,27,13,52,23.40
2019,05,27,13,53,23.40
2019,05,27,13,54,23.40
2019,05,27,13,55,23.40
2019,05,27,13,56,23.40
2019,05,27,13,57,23.40
2019,05,27,13,58,23.50
2019,05,27,13,59,23.50
2019,05,27,14,00,23.50
2019,05,27,14,01,23.50
2019,05,27,14,02,23.60
2019,05,27,14,03,23.60
2019,05,27,14,04,23.70
2019,05,27,14,05,23.60
2019,05,27,14,06,23.60
2019,05,27,14,07,23.70
2019,05,27,14,08,23.70
2019,05,27,14,09,23.70
2019,05,27,14,10,23.80
2019,05,27,14,11,23.80
2019,05,27,14,12,23.90
2019,05,27,14,13,24.00
2019,05,27,14,14,24.00
2019,05,27,14,15,24.00
2019,05,27,14,16,24.10
2019,05,27,14,17,24.10
2019,05,27,14,18,24.10
2019,05,27,14,19,24.20
2019,05,27,14,20,24.20
2019,05,27,14,21,24.30
2019,05,27,14,22,24.40
2019,05,27,14,23,24.50
2019,05,27,14,24,24.50
2019,05,27,14,25,24.60
2019,05,27,14,26,24.70
2019,05,27,14,27,24.70
2019,05,27,14,28,24.80
2019,05,27,14,29,24.90
2019,05,27,14,30,24.90
2019,05,27,14,31,25.10
2019,05,27,14,32,25.20
2019,05,27,14,33,25.20
2019,05,27,14,34,25.30
2019,05,27,14,35,25.30
2019,05,27,14,36,25.40
2019,05,27,14,37,25.40
2019,05,27,14,38,25.40
2019,05,27,14,39,25.40
2019,05,27,14,40,25.60
2019,05,27,14,41,25.60
2019,05,27,14,42,25.60
2019,05,27,14,43,25.60
2019,05,27,14,44,25.40
2019,05,27,14,45,25.40
2019,05,27,14,46,25.40
2019,05,27,14,47,25.40
2019,05,27,14,48,25.40
2019,05,27,14,49,25.40
2019,05,27,14,50,25.60
2019,05,27,14,51,25.60
2019,05,27,14,52,25.70
2019,05,27,14,53,25.70
2019,05,27,14,54,25.70
2019,05,27,14,55,25.80
2019,05,27,14,56,25.80
2019,05,27,14,57,25.80
2019,05,27,14,58,25.70
2019,05,27,14,59,25.70
2019,05,27,15,00,25.60
2019,05,27,15,01,25.60
2019,05,27,15,02,25.60
2019,05,27,15,03,25.60
2019,05,27,15,04,25.60
2019,05,27,15,05,25.60
2019,05,27,15,06,25.60
2019,05,27,15,07,25.60
2019,05,27,15,08,25.60
2019,05,27,15,09,25.60
2019,05,27,15,10,25.70
2019,05,27,15,11,25.70
2019,05,27,15,12,25.70
2019,05,27,15,13,25.60
2019,05,27,15,14,25.40
2019,05,27,15,15,25.40
2019,05,27,15,16,25.40
2019,05,27,15,17,25.40
2019,05,27,15,19,25.60
2019,05,27,15,20,25.60
2019,05,27,15,21,25.70
2019,05,27,15,22,25.80
2019,05,27,15,24,25.90
2019,05,27,15,26,26.20
2019,05,27,15,27,26.20
2019,05,27,15,28,26.20
2019,05,27,15,29,26.20
2019,05,27,15,30,26.30
2019,05,27,15,31,26.30
2019,05,27,15,32,26.30
2019,05,27,15,33,26.30
2019,05,27,15,34,26.30
2019,05,27,15,35,26.30
2019,05,27,15,36,26.30
2019,05,27,15,37,26.40
2019,05,27,15,38,26.40
2019,05,27,15,39,26.40
2019,05,27,15,40,26.50
2019,05,27,15,41,26.50
2019,05,27,15,42,26.50
2019,05,27,15,43,26.60
2019,05,27,15,44,26.60
2019,05,27,15,45,26.60
2019,05,27,15,46,26.60
2019,05,27,15,47,26.60
2019,05,27,15,48,26.50
2019,05,27,15,49,26.50
2019,05,27,15,50,26.50
2019,05,27,15,51,26.50
2019,05,27,15,53,26.40
2019,05,27,15,54,26.40
2019,05,27,15,55,26.40
2019,05,27,15,56,26.40
2019,05,27,15,57,26.30
2019,05,27,15,58,26.30
2019,05,27,15,59,26.30
2019,05,27,16,00,26.30
2019,05,27,16,01,26.40
2019,05,27,16,02,26.40
2019,05,27,16,03,26.40
2019,05,27,16,04,26.40
2019,05,27,16,05,26.40
2019,05,27,16,06,26.30
2019,05,27,16,07,26.40
2019,05,27,16,08,26.40
2019,05,27,16,09,26.40
2019,05,27,16,10,26.50
2019,05,27,16,11,26.50
2019,05,27,16,12,26.60
2019,05,27,16,13,26.70
2019,05,27,16,14,26.80
2019,05,27,16,15,26.80
2019,05,27,16,16,26.90
2019,05,27,16,17,27.00
2019,05,27,16,18,27.10
2019,05,27,16,19,27.10
2019,05,27,16,20,27.20
2019,05,27,16,21,27.20
2019,05,27,16,22,27.20
2019,05,27,16,23,27.30
2019,05,27,16,25,27.30
2019,05,27,16,26,27.30
2019,05,27,16,27,27.30
2019,05,27,16,29,27.40
2019,05,27,16,30,27.40
2019,05,27,16,31,27.40
2019,05,27,16,32,27.40
2019,05,27,16,33,27.40
2019,05,27,16,34,27.40
2019,05,27,16,35,27.50
2019,05,27,16,36,27.50
2019,05,27,16,37,27.50
2019,05,27,16,38,27.40
2019,05,27,16,39,27.40
2019,05,27,16,40,27.40
2019,05,27,16,41,27.40
2019,05,27,16,42,27.40
2019,05,27,16,43,27.40
2019,05,27,16,44,27.40
2019,05,27,16,45,27.40
2019,05,27,16,47,27.40
2019,05,27,16,48,27.30
2019,05,27,16,49,27.30
2019,05,27,16,50,27.30
2019,05,27,16,51,27.30
2019,05,27,16,52,27.30
2019,05,27,16,53,27.30
2019,05,27,16,54,27.30
2019,05,27,16,56,27.40
2019,05,27,16,57,27.40
2019,05,27,16,58,27.50
2019,05,27,16,59,27.50
2019,05,27,17,00,27.60
2019,05,27,17,01,27.60
2019,05,27,17,02,27.60
2019,05,27,17,03,27.70
2019,05,27,17,04,27.70
2019,05,27,17,05,27.70
2019,05,27,17,06,27.80
2019,05,27,17,07,27.90
2019,05,27,17,08,27.90
2019,05,27,17,09,28.10
2019,05,27,17,10,28.10
2019,05,27,17,11,28.20
2019,05,27,17,12,28.20
2019,05,27,17,13,28.20
2019,05,27,17,14,28.30
2019,05,27,17,15,28.30
2019,05,27,17,16,28.20
2019,05,27,17,17,28.20
2019,05,27,17,18,28.20
2019,05,27,17,19,28.20
2019,05,27,17,20,28.20
2019,05,27,17,21,28.10
2019,05,27,17,22,28.10
2019,05,27,17,23,28.10
2019,05,27,17,24,28.10
2019,05,27,17,25,28.10
2019,05,27,17,26,27.90
2019,05,27,17,27,27.90
2019,05,27,17,28,27.80
2019,05,27,17,29,27.80
2019,05,27,17,30,27.80
2019,05,27,17,31,27.80
2019,05,27,17,32,27.80
2019,05,27,17,33,27.70
2019,05,27,17,34,27.70
2019,05,27,17,35,27.70
2019,05,27,17,36,27.60
2019,05,27,17,37,27.60
2019,05,27,17,38,27.50
2019,05,27,17,39,27.50
2019,05,27,17,40,27.50
2019,05,27,17,41,27.50
2019,05,27,17,42,27.50
2019,05,27,17,43,27.50
2019,05,27,17,44,27.40
2019,05,27,17,45,27.40
2019,05,27,17,46,27.30
2019,05,27,17,47,27.30
2019,05,27,17,48,27.30
2019,05,27,17,49,27.30
2019,05,27,17,50,27.30